TimeCST,TemperatureF,Dew PointF,Humidity,Sea Level PressureIn,VisibilityMPH,Wind Direction,Wind SpeedMPH,Gust SpeedMPH,PrecipitationIn,Events,Conditions,WindDirDegrees,DateUTC
12:15 AM,7.7,5.9,92,30.10,10.0,NW,6.9,-,N/A,,Clear,310,2013-12-13 06:15:00
12:35 AM,8.2,6.3,92,30.10,10.0,NW,5.8,-,N/A,,Clear,310,2013-12-13 06:35:00
12:55 AM,7.9,5.9,92,30.10,10.0,NW,5.8,-,N/A,,Clear,310,2013-12-13 06:55:00
1:15 AM,8.6,6.8,92,30.09,10.0,NW,5.8,-,N/A,,Clear,320,2013-12-13 07:15:00
1:34 AM,9.9,8.1,92,30.09,10.0,NW,3.5,-,N/A,,Clear,310,2013-12-13 07:34:00
1:55 AM,9.7,7.9,92,30.09,10.0,NW,5.8,-,N/A,,Clear,320,2013-12-13 07:55:00
2:14 AM,10.2,8.4,92,30.09,10.0,NW,6.9,-,N/A,,Clear,320,2013-12-13 08:14:00
2:35 AM,10.0,8.2,92,30.09,10.0,WNW,4.6,-,N/A,,Clear,300,2013-12-13 08:35:00
2:55 AM,8.8,7.0,92,30.09,10.0,NW,4.6,-,N/A,,Clear,310,2013-12-13 08:55:00
3:15 AM,9.3,7.5,92,30.09,10.0,NW,4.6,-,N/A,,Clear,310,2013-12-13 09:15:00
3:35 AM,9.1,7.3,92,30.10,10.0,NNW,5.8,-,N/A,,Clear,330,2013-12-13 09:35:00
3:55 AM,8.6,6.6,92,30.10,10.0,NW,4.6,-,N/A,,Clear,310,2013-12-13 09:55:00
4:15 AM,8.2,5.9,90,30.10,10.0,NW,4.6,-,N/A,,Clear,320,2013-12-13 10:15:00
4:34 AM,8.6,6.6,92,30.09,10.0,NW,3.5,-,N/A,,Clear,320,2013-12-13 10:34:00
4:55 AM,9.7,7.5,91,30.10,10.0,NNW,5.8,-,N/A,,Clear,340,2013-12-13 10:55:00
5:15 AM,10.2,7.7,90,30.10,10.0,NNW,5.8,-,N/A,,Clear,340,2013-12-13 11:15:00
5:35 AM,10.4,7.7,89,30.10,10.0,NNW,4.6,-,N/A,,Clear,340,2013-12-13 11:35:00
5:55 AM,10.4,7.7,89,30.10,10.0,North,5.8,-,N/A,,Clear,350,2013-12-13 11:55:00
6:14 AM,10.4,8.1,90,30.10,10.0,North,5.8,-,N/A,,Clear,360,2013-12-13 12:14:00
6:35 AM,10.8,8.2,90,30.11,10.0,North,4.6,-,N/A,,Clear,10,2013-12-13 12:35:00
6:55 AM,11.1,8.4,89,30.12,10.0,NNE,5.8,-,N/A,,Clear,20,2013-12-13 12:55:00
7:14 AM,10.9,8.4,90,30.12,10.0,NNE,4.6,-,N/A,,Clear,30,2013-12-13 13:14:00
7:35 AM,11.1,8.6,90,30.12,10.0,NNE,3.5,-,N/A,,Clear,30,2013-12-13 13:35:00
7:54 AM,11.3,8.6,89,30.12,10.0,NE,3.5,-,N/A,,Scattered Clouds,40,2013-12-13 13:54:00
8:15 AM,11.3,9.1,91,30.12,10.0,NE,5.8,-,N/A,,Clear,40,2013-12-13 14:15:00
8:35 AM,12.0,9.5,90,30.12,10.0,NE,6.9,-,N/A,,Mostly Cloudy,50,2013-12-13 14:35:00
8:55 AM,12.7,9.9,88,30.12,10.0,ENE,9.2,-,N/A,,Overcast,60,2013-12-13 14:55:00
9:15 AM,13.1,10.0,88,30.13,10.0,ENE,9.2,-,N/A,,Mostly Cloudy,60,2013-12-13 15:15:00
9:34 AM,13.8,10.0,85,30.14,10.0,ENE,9.2,-,N/A,,Mostly Cloudy,70,2013-12-13 15:34:00
9:55 AM,14.0,9.5,82,30.13,10.0,ENE,13.8,-,N/A,,Overcast,70,2013-12-13 15:55:00
10:14 AM,14.4,10.2,84,30.14,10.0,ENE,9.2,-,N/A,,Overcast,70,2013-12-13 16:14:00
10:35 AM,14.5,10.0,82,30.15,10.0,ENE,12.7,-,N/A,,Overcast,60,2013-12-13 16:35:00
10:55 AM,14.9,10.0,81,30.15,10.0,ENE,10.4,-,N/A,,Overcast,60,2013-12-13 16:55:00
11:15 AM,14.9,10.2,82,30.15,10.0,ENE,12.7,-,N/A,,Overcast,60,2013-12-13 17:15:00
11:35 AM,15.4,10.4,80,30.15,10.0,ENE,11.5,-,N/A,,Overcast,70,2013-12-13 17:35:00
11:54 AM,15.6,10.6,80,30.15,10.0,ENE,11.5,-,N/A,,Overcast,60,2013-12-13 17:54:00
12:15 PM,15.6,10.8,81,30.15,10.0,ENE,10.4,-,N/A,,Overcast,60,2013-12-13 18:15:00
12:34 PM,15.6,10.9,82,30.14,10.0,NE,11.5,-,N/A,,Overcast,50,2013-12-13 18:34:00
12:55 PM,15.6,10.9,82,30.13,10.0,NE,11.5,-,N/A,,Overcast,50,2013-12-13 18:55:00
1:15 PM,15.3,10.4,81,30.13,10.0,NE,13.8,-,N/A,,Overcast,50,2013-12-13 19:15:00
1:35 PM,15.1,10.4,82,30.13,10.0,NE,12.7,-,N/A,,Overcast,50,2013-12-13 19:35:00
1:55 PM,14.9,10.8,84,30.13,10.0,NE,11.5,-,N/A,,Overcast,50,2013-12-13 19:55:00
2:14 PM,14.5,10.4,84,30.13,10.0,NE,13.8,-,N/A,,Overcast,50,2013-12-13 20:14:00
2:35 PM,14.0,9.9,84,30.13,10.0,NE,13.8,-,N/A,,Overcast,50,2013-12-13 20:35:00
2:55 PM,14.0,9.5,82,30.14,10.0,NE,12.7,-,N/A,,Overcast,40,2013-12-13 20:55:00
3:15 PM,13.8,9.3,82,30.14,10.0,NE,13.8,-,N/A,,Overcast,40,2013-12-13 21:15:00
3:35 PM,13.5,8.6,81,30.15,10.0,NE,12.7,-,N/A,,Overcast,50,2013-12-13 21:35:00
3:55 PM,13.6,9.5,84,30.15,10.0,NE,13.8,-,N/A,,Overcast,50,2013-12-13 21:55:00
4:14 PM,12.7,9.1,86,30.16,7.0,NNE,11.5,-,N/A,Snow,Light Snow,30,2013-12-13 22:14:00
4:35 PM,12.2,8.6,85,30.17,10.0,NNE,10.4,-,N/A,,Overcast,30,2013-12-13 22:35:00
4:55 PM,11.5,7.7,85,30.18,10.0,NE,11.5,-,N/A,,Overcast,40,2013-12-13 22:55:00
5:14 PM,10.9,7.2,85,30.19,10.0,NE,9.2,-,N/A,,Overcast,40,2013-12-13 23:14:00
5:35 PM,10.4,6.8,85,30.19,10.0,NE,10.4,-,N/A,,Overcast,40,2013-12-13 23:35:00
5:55 PM,10.2,6.1,83,30.20,10.0,NE,11.5,-,N/A,,Overcast,40,2013-12-13 23:55:00
6:14 PM,9.5,5.9,85,30.21,10.0,NE,11.5,-,N/A,,Overcast,40,2013-12-14 00:14:00
6:35 PM,9.3,5.5,85,30.21,10.0,NE,9.2,-,N/A,,Overcast,40,2013-12-14 00:35:00
6:55 PM,9.0,5.0,84,30.22,10.0,NE,8.1,-,N/A,,Overcast,40,2013-12-14 00:55:00
7:15 PM,8.8,5.0,85,30.23,10.0,NE,10.4,-,N/A,,Overcast,40,2013-12-14 01:15:00
7:34 PM,8.6,4.8,85,30.23,10.0,NE,10.4,-,N/A,,Overcast,40,2013-12-14 01:34:00
7:55 PM,8.6,4.8,85,30.25,7.0,NNE,9.2,-,N/A,Snow,Light Snow,30,2013-12-14 01:55:00
8:15 PM,8.4,4.6,85,30.25,4.0,NNE,6.9,-,N/A,Snow,Light Snow,20,2013-12-14 02:15:00
8:34 PM,8.1,5.0,87,30.26,1.2,NNE,6.9,-,N/A,Snow,Light Snow,20,2013-12-14 02:34:00
8:55 PM,7.9,5.2,89,30.26,2.0,NNE,10.4,-,N/A,Snow,Light Snow,20,2013-12-14 02:55:00
9:15 PM,7.7,5.2,89,30.26,2.0,NNE,6.9,-,N/A,Snow,Light Snow,20,2013-12-14 03:15:00
9:35 PM,7.7,5.0,89,30.26,2.5,NNE,6.9,-,N/A,Snow,Light Snow,20,2013-12-14 03:35:00
9:54 PM,7.7,5.0,89,30.26,2.5,North,6.9,-,N/A,Snow,Light Snow,10,2013-12-14 03:54:00
10:15 PM,7.7,5.0,89,30.26,2.0,NNE,6.9,-,N/A,Snow,Light Snow,20,2013-12-14 04:15:00
10:35 PM,7.7,5.0,89,30.27,2.5,NNE,5.8,-,N/A,Snow,Light Snow,20,2013-12-14 04:35:00
10:55 PM,7.7,5.0,89,30.27,4.0,NNE,8.1,-,N/A,Snow,Light Snow,20,2013-12-14 04:55:00
11:14 PM,7.7,5.0,89,30.27,3.0,North,4.6,-,N/A,Snow,Light Snow,10,2013-12-14 05:14:00
11:35 PM,7.5,4.6,88,30.27,5.0,North,4.6,-,N/A,,Overcast,360,2013-12-14 05:35:00
11:55 PM,7.5,4.8,89,30.27,7.0,North,4.6,-,N/A,,Mostly Cloudy,10,2013-12-14 05:55:00